Location: Untermarchtal
(48.2403°N, 9.6117°E)
Time: 17:13:15
(UTC+01:00)

ISS - Pass Details

Date: 18 November 2017
Orbit: 402 x 407 km, 51.6° (Epoch: 20 November)

Event Time Altitude Azimuth Distance (km) Brightness Sun altitude
Exits shadow 05:31:22 13° 187° (S) 1,284 -1.3 -20.0°
Drops below altitude 10° 05:32:00 10° 178° (S) 1,448 -0.9 -19.9°
Sets 05:34:31 0° 158° (SSE) 2,302 0.4 -19.5°
